Change the Weather History Date:

Saturday, May 4, 2013

  Actual Average Record
Temperature  
Mean Temperature 54 °F -  
Max Temperature 70 °F 67 °F 89 °F (2001)
Min Temperature 38 °F 51 °F 38 °F (2013)
Degree Days  
Heating Degree Days 12    
Growing Degree Days 4 (Base 50)    
Moisture  
Dew Point 41 °F    
Average Humidity 66    
Maximum Humidity 99    
Minimum Humidity 32    
Precipitation  
Precipitation 0.00 in - - ()
Sea Level Pressure  
Sea Level Pressure 30.28 in    
Wind  
Wind Speed 2 mph (East)    
Max Wind Speed 8 mph    
Max Gust Speed 16 mph    
Visibility 10 miles    
Events      
Averages and records for this station are not official NWS values.
T = Trace of Precipitation, MM = Missing Value Source: NWS Daily Summary

Daily Weather History Graph

Daily Weather History Graph

Search for Another Location

Airport or City:

Trip Planner

Search our weather history database for the weather conditions in past years. The results will help you decide how hot, cold, wet, or windy it might be!

Date:

Astronomy

May. 04, 2013 Rise Set
Actual Time 6:01 AM EDT 8:05 PM EDT
Civil Twilight 5:31 AM EDT 8:35 PM EDT
Nautical Twilight 4:55 AM EDT 9:11 PM EDT
Astronomical Twilight 4:15 AM EDT 9:51 PM EDT
Moon 2:59 AM EDT (5/4) 2:59 PM EDT (5/4)
Length of Visible Light 15h 03m
Length of Day
14h 03m
Waning Crescent, 27% of the Moon is Illuminated
May 4
Waning Crescent
May 9
New
May 18
First Quarter
May 25
Full
May 31
Last Quarter

Hourly Weather History & Observations

Time (EDT) Temp. Dew Point Humidity Pressure Visibility Wind Dir Wind Speed Gust Speed Precip Events Conditions
12:55 AM 43.2 °F 38.5 °F 84% 30.35 in 10.0 mi Calm Calm - N/A   Clear
1:55 AM 40.6 °F 39.9 °F 97% 30.34 in 10.0 mi Calm Calm - N/A   Clear
2:55 AM 40.8 °F 40.5 °F 99% 30.32 in 10.0 mi Calm Calm - N/A   Clear
3:55 AM 39.2 °F 38.8 °F 99% 30.32 in 10.0 mi Calm Calm - N/A   Clear
4:55 AM 39.4 °F 39.2 °F 99% 30.32 in 10.0 mi Calm Calm - N/A   Clear
5:55 AM 38.3 °F 38.1 °F 99% 30.32 in 10.0 mi Calm Calm - N/A   Clear
6:55 AM 40.5 °F 40.1 °F 99% 30.34 in 10.0 mi Calm Calm - N/A   Clear
7:55 AM 46.6 °F 43.3 °F 88% 30.34 in 10.0 mi Calm Calm - N/A   Clear
8:55 AM 54.0 °F 43.5 °F 68% 30.33 in 10.0 mi Calm Calm - N/A   Clear
9:55 AM 57.4 °F 45.1 °F 64% 30.32 in 10.0 mi Calm Calm - N/A   Clear
10:55 AM 60.1 °F 45.9 °F 59% 30.31 in 10.0 mi ESE 6.9 mph - N/A   Clear
11:55 AM 62.2 °F 45.3 °F 54% 30.30 in 10.0 mi Variable 4.6 mph - N/A   Clear
12:55 PM 65.1 °F 44.2 °F 47% 30.28 in 10.0 mi Variable 6.9 mph - N/A   Clear
1:55 PM 68.0 °F 43.2 °F 41% 30.26 in 10.0 mi ESE 8.1 mph 16.1 mph N/A   Clear
2:55 PM 69.1 °F 42.4 °F 38% 30.24 in 10.0 mi East 8.1 mph - N/A   Clear
3:55 PM 69.8 °F 41.2 °F 35% 30.22 in 10.0 mi East 5.8 mph - N/A   Clear
4:55 PM 69.6 °F 38.5 °F 32% 30.21 in 10.0 mi East 8.1 mph - N/A   Clear
5:55 PM 69.1 °F 40.6 °F 36% 30.20 in 10.0 mi Variable 3.5 mph - N/A   Clear
6:55 PM 67.6 °F 38.7 °F 35% 30.19 in 10.0 mi East 6.9 mph - N/A   Clear
7:55 PM 64.9 °F 38.8 °F 38% 30.19 in 10.0 mi SE 3.5 mph - N/A   Clear
8:55 PM 55.2 °F 43.2 °F 64% 30.21 in 10.0 mi Calm Calm - N/A   Clear
9:55 PM 51.6 °F 42.4 °F 71% 30.22 in 10.0 mi Calm Calm - N/A   Clear
10:55 PM 50.0 °F 41.5 °F 73% 30.24 in 10.0 mi Calm Calm - N/A   Clear
11:55 PM 48.6 °F 41.0 °F 75% 30.25 in 10.0 mi NE 3.5 mph - N/A   Clear